Terminal Aerodrome Forecast
Issued by NWS Houston/Galveston TX

Home | Current Version | Previous Version | Text Only | Print | Product List | Glossary On
Versions: 1 2 3 4 5 6 7 8 9 10 11 12 13 14 15 16 17 18 19 20 21 22 23 24 25 26 27 28 29 30 31 32 33 34 35 36 37 38 39 40 41 42 43 44 45 46 47 48 49 50
000
FTUS44 KHGX 231720
TAFHOU
TAF
KHOU 231720Z 2318/2418 16010G18KT P6SM FEW025 FEW250
     FM240300 15009KT P6SM SCT015
     FM240700 16009KT P6SM BKN015
     FM241500 18018KT P6SM BKN025=

USA.gov is the U.S. government's official web portal to all federal, state and local government web resources and services.